sat.trackr.live / text

‹ back to catalog

TIANMU-1 22

NORAD 58663 · 2023-208D

PAYLOAD ACTIVE UNKNOWN

§ Identity

Operator
Country
PRC
Launch date
2023-12-27
Launch site
JSC
Launch vehicle
Mass (kg)
RCS (m²)

Purposes: earth_obs

External: N2YO · Heavens-Above · Gunter

§ Orbital elements

Epoch: 2026-09-19T22:23:21.463584Z

Period
93.98 min
Inclination
97.4570°
Eccentricity
0.0003858
Mean motion
15.32238240 rev/d
Perigee alt
466.5 km
Apogee alt
471.8 km
Semi-major
6,847.3 km
B*
1.7027e-4
RAAN
19.6952°
Arg perigee
26.1448°
Mean anomaly
333.9988°
Rev number
15,183

§ Raw data

TIANMU-1 221 58663U 23208D   26262.93288731  .00005221  00000+0  17027-3 0  99912 58663  97.4570  19.6952 0003858  26.1448 333.9988 15.32238240151834

JSON: /api/v1/satellites/58663 · /tle

For live sub-satellite position, see the globe view (requires WebGL).

§ Visibility from observer

Set your observer location to see the next 7 days of passes ≥ 10°. The values pass through the URL so the page stays shareable.

No JS? Fill the form by hand. The geolocation button needs JavaScript.